This is the latest recevied weather packets stored in our database for station/object KC0RPY. If no packets are shown the sender has not sent any weather packets the latest 10 day(s).
| Time | Temp. | Humidity | Pressure | Rain* | Wind** | Luminosity | Snow |
|---|---|---|---|---|---|---|---|
| 1777688717 | 12.78° C | 53% | 1018.8 hPa | 0 mm | - | 0 W/m² | - |
| 1777688415 | 12.78° C | 53% | 1018.5 hPa | 0 mm | - | 0 W/m² | - |
| 1777688112 | 12.78° C | 53% | 1018.5 hPa | 0 mm | - | 0 W/m² | - |
| 1777687809 | 12.78° C | 52% | 1018.8 hPa | 0 mm | - | 0 W/m² | - |
| 1777687507 | 12.78° C | 52% | 1018.5 hPa | 0 mm | - | 0 W/m² | - |
| 1777687203 | 13.33° C | 51% | 1018.5 hPa | 0 mm | - | 0 W/m² | - |
| 1777686900 | 13.33° C | 51% | 1018.5 hPa | 0 mm | - | 0 W/m² | - |
| 1777686591 | 13.33° C | 51% | 1018.5 hPa | 0 mm | - | 0 W/m² | - |
| 1777686288 | 13.33° C | 50% | 1018.5 hPa | 0 mm | - | 0 W/m² | - |
| 1777685985 | 13.89° C | 49% | 1018.1 hPa | 0 mm | - | 0 W/m² | - |
| 1777685681 | 13.89° C | 49% | 1018.1 hPa | 0 mm | - | 0 W/m² | - |
| 1777685377 | 13.89° C | 48% | 1018.1 hPa | 0 mm | - | 0 W/m² | - |
| 1777685075 | 13.89° C | 48% | 1017.7 hPa | 0 mm | - | 0 W/m² | - |
| 1777684772 | 14.44° C | 47% | 1017.7 hPa | 0 mm | - | 0 W/m² | - |
| 1777684468 | 14.44° C | 47% | 1017.7 hPa | 0 mm | - | 1 W/m² | - |
| 1777684165 | 15° C | 46% | 1017.7 hPa | 0 mm | - | 3 W/m² | - |
| 1777683862 | 15° C | 46% | 1017.3 hPa | 0 mm | - | 6 W/m² | - |
| 1777683558 | 15° C | 46% | 1017.7 hPa | 0 mm | - | 10 W/m² | - |
| 1777683256 | 15° C | 45% | 1017.7 hPa | 0 mm | - | 12 W/m² | - |
| 1777682954 | 15.56° C | 44% | 1017.7 hPa | 0 mm | - | 17 W/m² | - |
| 1777682650 | 15.56° C | 44% | 1017.3 hPa | 0 mm | - | 19 W/m² | - |
| 1777682347 | 15.56° C | 43% | 1017 hPa | 0 mm | - | 23 W/m² | - |
| 1777682044 | 15.56° C | 43% | 1017.3 hPa | 0 mm | - | 31 W/m² | - |
| 1777681740 | 15.56° C | 43% | 1017 hPa | 0 mm | - | 28 W/m² | - |
| 1777681438 | 15.56° C | 42% | 1017 hPa | 0 mm | - | 35 W/m² | - |
* Rain latest hour (hover to see other rain measurements)
** Current wind speed in m/s (hover to see current wind gust speed)